Location: Beetenbrück
(52.8113°N, 9.5946°E)
Time: 21:09:06
(UTC+00:00)

Cosmos 967 Rocket - Pass Details

Date: 14 April 2026
Orbit: 942 x 994 km, 65.8° (Epoch: 12 May)

Event Time Altitude Azimuth Distance (km) Brightness Sun altitude
Rises 21:39:19 0° 318° (NW) 3,719 8.8 -23.8°
Reaches altitude 10° 21:41:55 10° 317° (NW) 2,764 7.9 -24.0°
Maximum altitude 21:48:24 82° 232° (SW) 1,003 4.4 -24.4°
Enters shadow 21:49:57 55° 154° (SSE) 1,172 4.5 -24.5°
